Simultaneous Nadir Overpasses (SNOs) Predictions

Prediction of SNOs between GOES-16 and METOP-B Satellite Orbit:

Table of predicted SNOs for the next 14.0 days since TLE Epoch: 12/9/2023
Index Date Time (GOES-16) GOES-16 Lat,Lon METOP-B Lat,Lon Distance(km) Time Diff (sec)
1 12/09/2023 14:18:04 -0.05, -75.22 -0.51, -73.17 234.15 80
2 12/11/2023 02:39:42 0.05, -75.20 -0.53, -77.76 291.53 80
3 12/12/2023 02:16:20 0.05, -75.20 0.57, -72.75 278.09 80
4 12/13/2023 14:37:50 -0.04, -75.23 0.43, -77.32 238.26 80
5 12/14/2023 14:14:28 -0.04, -75.23 -0.66, -72.31 331.53 80
6 12/16/2023 02:36:05 0.03, -75.21 -0.37, -76.90 193.80 80
7 12/17/2023 02:12:45 0.03, -75.21 0.79, -71.92 376.33 80
8 12/18/2023 14:34:13 -0.03, -75.25 0.26, -76.47 139.02 80
9 12/19/2023 14:10:52 -0.03, -75.26 -0.84, -71.47 431.67 80
10 12/21/2023 02:32:29 0.02, -75.25 -0.18, -76.06 92.17 80
11 12/22/2023 02:09:09 0.02, -75.27 0.98, -71.07 478.88 80
